Regional Weather Roundup
Issued by NWS

Home | Current Version | Previous Version | Graphics & Text | Print | Product List | Glossary On
Versions: 1 2 3 4 5 6 7 8 9 10 11 12 13 14 15 16 17 18 19 20 21 22 23 24 25 26 27 28 29 30 31 32 33 34 35 36 37 38 39 40 41 42 43 44 45 46 47 48 49 50
000
ASUS43 KMKX 241921
RWRWI

WISCONSIN REGIONAL WEATHER ROUNDUP
NATIONAL WEATHER SERVICE MILWAUKEE/SULLIVAN WI
100 PM CST FRI FEB 24 2017

NOTE: "FAIR" INDICATES FEW OR NO CLOUDS BELOW 12,000 FEET WITH NO
SIGNIFICANT WEATHER AND/OR OBSTRUCTIONS TO VISIBILITY.

WIZ001-002-006>008-014>016-023>028-242000-
NORTHWEST WISCONSIN

CITY           SKY/WX    TMP DP  RH WIND       PRES   REMARKS
SUPERIOR ARPT  CLOUDY    22  13  67 N7        29.93F WCI  14
ASHLAND        CLOUDY    20  15  81 N18G25    29.89F HAZE    WCI   5
HAYWARD        CLOUDY    21  13  71 NE17G25   29.82F WCI   7
SIREN          CLOUDY    24  14  67 N15G23    29.85F WCI  11
CUMBERLAND     LGT SNOW  23  18  80 N17G23    29.78F WCI   9
RICE LAKE      LGT SNOW  24  19  83 N14G23    29.79F VSB 3/4 WCI  11
CHETEK         SNOW      24  20  87 N8G16     29.77F VSB 1/2 WCI  14
LADYSMITH      LGT SNOW  26  18  72 N10G25    29.77F WCI  15
EAU CLAIRE     LGT SNOW  26  21  81 N12G21    29.72F VSB 1   WCI  16
MENOMONIE      LGT SNOW  26  22  84 N17       29.75F VSB 3/4 WCI  13
NEW RICHMOND   LGT SNOW  25  19  76 N21       29.79F WCI  11
OSCEOLA        CLOUDY    26  17  68 N16G22    29.84F WCI  14
$$

WIZ003>005-009-010-017-018-242000-
NORTH CENTRAL WISCONSIN

CITY           SKY/WX    TMP DP  RH WIND       PRES   REMARKS
MANITOWISH WTR LGT SNOW  20  17  88 N10G21    29.75F WCI   8
ARBOR VITAE    LGT SNOW  22  18  83 N10G20      N/A  WCI  11
WOODRUFF       LGT SNOW  22  18  83 N10G20      N/A  WCI  11
RHINELANDER    CLOUDY    23  17  78 N12G21    29.69F WCI  12
EAGLE RIVER    LGT SNOW  21  15  79 N17       29.71F WCI   6
LAND O LAKES   LGT SNOW  20  16  84 NE14      29.75F WCI   6
PHILLIPS       LGT SNOW  22  17  80 N15G22    29.73F WCI   9
TOMAHAWK       LGT SNOW  22  18  82 N14G22    29.70F WCI  10
MEDFORD        CLOUDY    23  18  81 N20G26    29.66F WCI   8
MERRILL        NOT AVBL
$$

WIZ029-030-035-036-043>047-242000-
CENTRAL WISCONSIN

CITY           SKY/WX    TMP DP  RH WIND       PRES   REMARKS
WAUSAU         MIX PCPN  24  19  81 N13G23    29.64F WCI  12
MOSINEE        LGT SNOW  25  23  93 N16       29.65F WCI  12
MARSHFIELD     CLOUDY    25  20  81 NE12G22   29.63F HAZE    WCI  14
STEVENS POINT  MIX PCPN  24  22  93 NE18G24   29.65F WCI  10
WAUPACA        CLOUDY    29  25  83 N16G24    29.63S FOG     WCI  18
WAUTOMA        FRZ RAIN  27  25  93 NE18      29.61F FOG     WCI  13
WISC RAPIDS    FRZ RAIN  27  24  89 NE16      29.65F FOG     WCI  15
CAMP DOUGLAS   FRZ DRZL  28  25  86 VRB7      29.63F FOG     WCI  21
$$

WIZ011>013-019>022-031-037>040-048>050-242000-
NORTHEAST WISCONSIN

CITY           SKY/WX    TMP DP  RH WIND       PRES   REMARKS
ANTIGO         LGT SNOW  22  19  86 N20       29.64S WCI   7
SHAWANO        CLOUDY    28  24  85 N17       29.64F FOG     WCI  16
OCONTO         CLOUDY    27  24  89 N13G20    29.64F WCI  16
STURGEON BAY   MIX PCPN  28  26  92 NE15G23   29.62F FOG     WCI  16
GREEN BAY      LGT SNOW  29  27  92 N18G36    29.61F FOG     WCI  16
MANITOWOC      MIX PCPN  32  30  92 N17G24    29.56F FOG     WCI  21
APPLETON       CLOUDY    25  27 100 NE21G29   29.58F FOG     WCI  10
CLINTONVILLE   CLOUDY    28  23  80 NE17G28   29.63F FOG     WCI  16
OSHKOSH        CLOUDY    28  25  88 N24G31    29.58F FOG     WCI  14
$$

WIZ032>034-041-042-053>061-242000-
SOUTHWEST WISCONSIN

CITY           SKY/WX    TMP DP  RH WIND       PRES   REMARKS
LA CROSSE      LGT SNOW  31  25  78 N15       29.66F WCI  20
SPARTA         CLOUDY    29  24  84 NE15      29.65F WCI  17
VIROQUA        CLOUDY    29  27  92 N14G20    29.59F WCI  19
BOSCOBEL       CLOUDY    32  27  81 NE10G18   29.59F WCI  24
PRAIRIE DU CHI CLOUDY    31  29  92 N6        29.59F WCI  26
PLATTEVILLE    CLOUDY    32  32 100 N12       29.53F WCI  23
$$

WIZ056-057-062-063-064-067-068-242000-
SOUTH CENTRAL WISCONSIN

CITY           SKY/WX    TMP DP  RH WIND       PRES   REMARKS
REEDSBURG      CLOUDY    28  27  95 NE10      29.59F FOG     WCI  19
BARABOO/DELLS  CLOUDY    28  27  93 N10       29.58F FOG     WCI  19
LONE ROCK      CLOUDY    31  26  82 NE13G24   29.58F WCI  21
MINERAL POINT  CLOUDY    32  32 100 NE5       29.52F FOG     WCI  27
MADISON        FRZ DRZL  30  28  92 N18       29.55S FOG     WCI  18
MIDDLETON      CLOUDY    32  32 100 NE10      29.56S WCI  23
WATERTOWN      CLOUDY    32  32 100 N8G20     29.52F FOG     WCI  25
MONROE         MIX PCPN  32  32 100 N18G26    29.49F WCI  20
JANESVILLE     CLOUDY    36  36 100 NE12G17   29.49  FOG     WCI  27
$$

WIZ051-052-058>065-066-070>072-242000-
SOUTHEAST WISCONSIN

CITY           SKY/WX    TMP DP  RH WIND       PRES   REMARKS
MILWAUKEE      CLOUDY    36  34  92 N17G26    29.48F FOG     WCI  26
WAUKESHA       CLOUDY    32  32 100 NE16G23   29.49F FOG     WCI  21
MILWAUKEE/TIMM DRIZZLE   34  30  86 NE17G29   29.51F WCI  23
RACINE         LGT RAIN  36  34  92 N16G26    29.48F FOG     WCI  26
KENOSHA        CLOUDY    36  34  92 N14       29.47S FOG     WCI  27
FOND DU LAC    LGT SNOW  29  25  85 N21       29.57F FOG     WCI  16
SHEBOYGAN      MIX PCPN  32  31  96 NE22G28   29.53F VSB 1   WCI  19
WEST BEND      LGT RAIN  32  32 100 NE8       29.51F WCI  25
JUNEAU         CLOUDY    30  29  94 N9        29.55S FOG     WCI  22
$$

LSZ147-162-242000-
LAKE SUPERIOR

STATION/POSITION TIME  TEMP    WIND        PRES    WAVE
                       AIR SEA DIR/SP/G            HT/PER
                 (UTC) (F)     (DEG/KT/KT) (MB)    (FT/S)
DEVILS ISLAND    1900   18      20/ 17/ 20 1014.9F
PORT WING        1840   20      30/ 17/ 22 1013.9F
SAXON HARBOR     1845   24      30/ 22/ 25 1011.5F
$$

LMZ867-665-643>646-242000-
LAKE MICHIGAN

STATION/POSITION TIME  TEMP    WIND        PRES    WAVE
                       AIR SEA DIR/SP/G            HT/PER
                 (UTC) (F)     (DEG/KT/KT) (MB)    (FT/S)
CHAMBERS ISLAND  1840   28     360/ 21/ 32 1003.7F
NORTHPORT PIER   1840   28      20/ 17/ 22 1004.4F
SISTER BAY       1750   29     360/ 17/ 28   N/A
KEWAUNEE LAKESHO 1854   31      40/ 20/ 29 1002.0F
SHEBOYGAN LAKESH 1900   33      20/ 26/ 31 1000.5F
PORT WASHINGTON  1901   34      20/ 13     1000.3
MILWAUKEE LAKESH 1900   35      10/ 18/ 22   N/A
KENOSHA   LAKESH 1900   36      10/ 21/ 25  998.0
$$

TC  - TEMPERATURE IN CELSIUS
VSB - VISIBILITY IN STATUTE MILES
WCI - WIND CHILL INDEX
HX  - HEAT INDEX





USA.gov is the U.S. government's official web portal to all federal, state and local government web resources and services.